[[{"header":{"parameterUnit":"m.s-1","parameterCategory":1,"la1":30.2991,"la2":30.254,"lo1":-89.0895,"lo2":-89.0444,"dy":0.0017,"dx":0.0017,"nx":28,"ny":28,"refTime":"2023-08-12T03:00:00:Z","depth":0,"parameterNumber":2,"parameterNumberName":"U-component_of_WINDS"},"data":[0,0,0,0,0,0,0,0,0,0,0,0,0,0,0,0,0,0,0,0,0,0,0,0,0,0,0,0,0,0,0,0,0,0,0,0,0,0,0,0,0,0,0,0,0,0,0,0,0,0,0,0,0,0,0,0,0,0,2.8336,2.8336,0,2.8382,2.8382,2.8383,2.8378,2.8378,2.8377,2.8376,2.8426,2.8428,2.843,0,0,0,0,0,0,0,0,0,0,0,0,0,2.8249,2.8251,2.8336,2.8336,2.8337,2.8381,2.8382,2.8383,2.8379,2.8378,2.8377,2.8376,2.8426,2.8428,2.843,0,0,0,0,0,0,0,0,0,0,0,0,0,2.829,2.8251,2.8336,2.834,2.8341,2.8381,2.8382,2.8383,2.8379,2.8378,2.8377,2.8376,2.8425,2.8428,2.8431,2.847,0,0,2.844,2.8441,0,0,0,0,0,0,0,0,2.8288,2.8293,2.8339,2.834,2.8341,2.8373,2.837,2.8412,2.8379,2.8364,2.8376,2.8375,2.841,2.8414,2.8425,2.8473,2.8475,2.844,2.8442,2.8443,2.8444,0,0,0,0,0,0,0,2.8285,2.8291,2.8354,2.834,2.8341,2.8341,2.8346,2.8378,2.8393,2.8366,2.8365,2.8371,2.841,2.8422,2.8426,2.8476,2.844,2.8443,2.8445,2.8446,2.8561,2.8563,0,0,0,0,0,0,2.8281,2.8289,2.8352,2.8355,2.8311,2.8344,2.8349,2.8364,2.8392,2.8395,2.8372,2.837,2.8417,2.8423,2.8428,2.8477,2.8443,2.8446,2.8448,2.856,2.8562,2.8563,0,0,0,0,0,0,2.8279,2.8286,2.8351,2.8322,2.833,2.8346,2.8363,2.8365,2.8377,2.8397,2.84,2.8381,2.8417,2.8424,2.846,2.8479,2.8447,2.845,2.8559,2.8561,2.8562,2.8576,0,0,0,0,0,0,2.8276,2.8286,2.8299,2.8322,2.8332,2.8381,2.8364,2.8367,2.8382,2.8381,2.8406,2.8409,2.8416,2.8456,2.8463,2.8482,2.8452,2.8557,2.856,2.8562,2.8574,2.8578,2.8582,0,0,0,0,0,2.8273,2.8301,2.83,2.8308,2.8349,2.8382,2.8387,2.8394,2.8383,2.8398,2.8412,2.8408,2.8476,2.846,2.8468,2.8488,2.8556,2.8559,2.8562,2.8572,2.8577,2.8581,0,0,0,0,0,0,2.828,2.8304,2.8303,2.8339,2.8359,2.8381,2.84,2.8399,2.8422,2.842,2.8429,2.8435,2.8472,2.8484,2.8465,2.853,2.8515,2.8519,2.852,2.8525,2.8529,2.8525,2.8455,0,0,0,0,0,2.8286,2.8309,2.833,2.836,2.837,2.8383,2.8397,2.8401,2.8422,2.843,2.8446,2.8467,2.8493,2.851,2.8535,2.8576,2.8583,2.8595,2.8599,2.8602,2.8605,2.863,2.8636,2.8573,2.8573,2.8573,0,0,2.8298,2.8314,2.8328,2.8362,2.8377,2.8402,2.839,2.8416,2.8436,2.8434,2.847,2.8483,2.8507,2.8546,2.8565,2.8558,2.8625,2.8605,2.8608,2.861,2.8634,2.864,2.8645,2.8575,2.8574,2.8574,0,0,2.8333,2.8347,2.8375,2.8391,2.8414,2.8423,2.843,2.8453,2.8461,2.8497,2.8497,2.8522,2.8566,2.8584,2.8599,2.8644,2.8643,2.8652,2.8672,2.8696,2.8701,2.8706,2.8723,2.8728,2.8656,2.8656,2.8656,0,2.8345,2.8382,2.8389,2.8416,2.8432,2.8432,2.8461,2.8477,2.8507,2.8519,2.8511,2.8568,2.8584,2.8629,2.864,2.8652,2.8662,2.8648,2.87,2.8704,2.8709,2.8725,2.8731,2.8657,2.8657,2.8657,2.8657,0,2.8396,2.8422,2.8442,2.8471,2.849,2.8518,2.8531,2.8548,2.8552,2.8563,2.8601,2.8621,2.8651,2.8662,2.8665,2.8708,2.8703,2.8698,2.8682,2.8716,2.8731,2.8737,2.8659,2.8658,2.8658,2.8658,0,0,2.8434,2.8469,2.8476,2.8491,2.8518,2.8539,2.8569,2.8597,2.8613,2.8635,2.8661,2.87,2.8696,2.8713,2.8719,2.874,2.8776,2.8732,2.8733,2.874,2.8826,2.8829,2.8836,2.8776,2.8777,2.8778,2.8824,0,2.8472,2.8522,2.8531,2.8576,2.8601,2.8604,2.863,2.8651,2.8663,2.8687,2.8701,2.8728,2.872,2.8731,2.8752,2.8767,2.8794,2.8764,2.8801,2.8802,2.8794,2.8844,2.8848,2.8889,2.883,2.8831,2.8832,0,2.8522,2.8545,2.8593,2.8619,2.863,2.8652,2.8681,2.8704,2.8729,2.8736,2.8757,2.8761,2.8794,2.8779,2.8825,2.8805,2.8821,2.8831,2.8833,2.8836,2.8818,2.8848,2.8903,2.8909,2.8841,2.884,2.884,0,2.8545,2.8589,2.8623,2.8636,2.8667,2.8683,2.8697,2.8721,2.8738,2.8764,2.8776,2.8806,2.8822,2.8845,2.8859,2.8846,2.8905,2.889,2.8913,2.8912,2.8923,2.8922,2.8981,2.8935,2.8935,2.8935,2.8935,0,2.8586,2.8614,2.8634,2.8655,2.8689,2.87,2.8734,2.8748,2.8769,2.8794,2.8799,2.8823,2.8839,2.8866,2.8877,2.8915,2.8922,2.893,2.8932,2.8929,2.8928,2.8939,2.8936,2.8937,2.8936,2.8936,2.8936,0,2.8616,2.8631,2.8668,2.8696,2.8703,2.8727,2.8751,2.8773,2.8786,2.8818,2.8826,2.8847,2.8879,2.8895,2.8935,2.8943,2.8985,2.8986,2.8976,2.8977,2.8998,2.8996,2.9065,2.9075,2.9024,2.9024,2.9024,0,2.864,2.8663,2.8693,2.871,2.8724,2.8752,2.877,2.8783,2.8803,2.8834,2.8852,2.8885,2.8911,2.8963,2.8982,2.9014,2.9015,2.9038,2.902,2.9017,2.9016,2.9014,2.9017,2.904,2.9041,2.9041,2.9041,0,2.8682,2.8689,2.8715,2.8744,2.8765,2.8789,2.8812,2.8826,2.8844,2.8866,2.8898,2.8919,2.8961,2.8993,2.9027,2.9043,2.9046,2.9047,2.9054,2.905,2.9044,2.9048,2.8984,2.9045,2.9045,2.9044,2.9044,2.9044,2.8711,2.8731,2.8756,2.8785,2.8805,2.8827,2.8849,2.8866,2.8893,2.8927,2.8934,2.8969,2.8996,2.9041,2.9059,2.9088,2.9083,2.9093,2.9095,2.9097,2.9098,2.904,2.9094,2.9094,2.9094,2.9094,2.9094,0,2.8753,2.877,2.8796,2.8829,2.8853,2.8854,2.888,2.89,2.8931,2.8955,2.8982,2.9021,2.9053,2.9076,2.911,2.9129,2.9131,2.9137,2.9135,2.9139,2.9101,2.9091,2.9134,2.9134,2.9134,2.9134,2.9134,2.9134,2.8777,2.8813,2.8823,2.8869,2.8886,2.892,2.8935,2.8957,2.8976,2.9019,2.9046,2.9061,2.9086,2.9122,2.9152,2.9159,2.9171,2.9177,2.9183,2.9146,2.9142,2.9137,2.9129,2.9179,2.9179,2.9219,2.9219,2.922]},{"header":{"parameterUnit":"m.s-1","parameterCategory":1,"la1":30.2991,"la2":30.254,"lo1":-89.0895,"lo2":-89.0444,"dy":0.0017,"dx":0.0017,"nx":28,"ny":28,"refTime":"2023-08-12T03:00:00:Z","depth":0,"parameterNumber":3,"parameterNumberName":"V-component_of_WINDS"},"data":[0,0,0,0,0,0,0,0,0,0,0,0,0,0,0,0,0,0,0,0,0,0,0,0,0,0,0,0,0,0,0,0,0,0,0,0,0,0,0,0,0,0,0,0,0,0,0,0,0,0,0,0,0,0,0,0,0,0,3.7641,3.7643,0,3.7837,3.7839,3.7842,3.7895,3.7894,3.7893,3.7892,3.8088,3.8094,3.8101,0,0,0,0,0,0,0,0,0,0,0,0,0,3.7304,3.731,3.764,3.7643,3.7645,3.7837,3.7839,3.7842,3.7895,3.7894,3.7893,3.7891,3.8086,3.8094,3.8101,0,0,0,0,0,0,0,0,0,0,0,0,0,3.747,3.7312,3.764,3.7695,3.7702,3.7836,3.784,3.7843,3.7896,3.7894,3.7892,3.7891,3.8084,3.8093,3.8102,3.8194,0,0,3.8131,3.8135,0,0,0,0,0,0,0,0,3.746,3.7482,3.7685,3.7692,3.77,3.784,3.7793,3.796,3.7896,3.7822,3.7892,3.789,3.8007,3.8022,3.8063,3.8203,3.8212,3.8132,3.8138,3.8142,3.8144,0,0,0,0,0,0,0,3.7449,3.7474,3.7718,3.7687,3.7697,3.7708,3.7729,3.7825,3.7921,3.7828,3.7833,3.7856,3.801,3.8054,3.8068,3.8215,3.8132,3.814,3.8146,3.8149,3.8435,3.8437,0,0,0,0,0,0,3.7429,3.7464,3.7712,3.7724,3.7574,3.7715,3.7739,3.7797,3.792,3.7938,3.7857,3.7857,3.8038,3.8057,3.8075,3.8188,3.8142,3.815,3.8156,3.8433,3.8436,3.8438,0,0,0,0,0,0,3.7421,3.745,3.7704,3.7595,3.7628,3.7723,3.7786,3.7801,3.7845,3.7942,3.7959,3.7884,3.8038,3.8062,3.8163,3.8195,3.8155,3.8163,3.8431,3.8434,3.8437,3.8415,0,0,0,0,0,0,3.7411,3.7447,3.7485,3.7596,3.7634,3.7791,3.7789,3.7806,3.7861,3.7864,3.7972,3.7988,3.8038,3.8149,3.8173,3.8208,3.8171,3.8428,3.8432,3.8436,3.8414,3.8417,3.842,0,0,0,0,0,3.7399,3.7471,3.7487,3.7517,3.7684,3.7793,3.7815,3.7873,3.7864,3.7901,3.7963,3.7984,3.8188,3.8159,3.8186,3.8224,3.8427,3.8431,3.8435,3.8412,3.8417,3.842,0,0,0,0,0,0,3.7361,3.7487,3.7506,3.7616,3.7694,3.7802,3.7851,3.7876,3.7957,3.7956,3.8023,3.8046,3.8142,3.8194,3.8159,3.8317,3.8307,3.8317,3.828,3.8285,3.8289,3.8274,3.8178,0,0,0,0,0,3.7366,3.7446,3.7551,3.7638,3.7676,3.7757,3.7807,3.7844,3.7927,3.7959,3.8029,3.8106,3.8187,3.8239,3.832,3.8421,3.8443,3.846,3.8464,3.8466,3.8473,3.8527,3.8534,3.8452,3.8452,3.8452,0,0,3.7376,3.7455,3.7501,3.7633,3.7697,3.7776,3.7784,3.7868,3.7927,3.7972,3.8072,3.8125,3.8215,3.8316,3.8364,3.8362,3.8501,3.8471,3.8472,3.8479,3.8532,3.854,3.8546,3.8455,3.8454,3.8454,0,0,3.7435,3.7504,3.7582,3.7646,3.7744,3.7796,3.7815,3.7919,3.7956,3.8058,3.8092,3.8161,3.8301,3.8363,3.8412,3.849,3.8511,3.8514,3.8531,3.8582,3.8588,3.8594,3.8619,3.8628,3.8521,3.8521,3.8521,0,3.7435,3.7557,3.7619,3.7701,3.7756,3.7801,3.7879,3.7937,3.8055,3.8091,3.8087,3.826,3.8324,3.8438,3.8457,3.8497,3.8517,3.8502,3.8583,3.859,3.8596,3.862,3.863,3.852,3.852,3.8521,3.8521,0,3.755,3.7635,3.7686,3.7799,3.786,3.7939,3.801,3.8064,3.8095,3.8147,3.8247,3.8325,3.842,3.845,3.8482,3.8568,3.8563,3.857,3.8561,3.8602,3.8626,3.8636,3.852,3.852,3.852,3.852,0,0,3.7592,3.7737,3.7754,3.7805,3.7914,3.7979,3.8058,3.8152,3.8195,3.8274,3.834,3.8455,3.8461,3.8517,3.8556,3.8601,3.8653,3.8603,3.8605,3.8607,3.8748,3.8741,3.8751,3.8668,3.867,3.8672,3.874,0,3.7663,3.7809,3.7865,3.7983,3.8059,3.8101,3.8169,3.8242,3.8292,3.8361,3.8415,3.8495,3.8499,3.8532,3.8579,3.8637,3.8682,3.8633,3.8727,3.873,3.8702,3.8764,3.8758,3.8819,3.875,3.8752,3.8753,0,3.7765,3.7845,3.797,3.8067,3.8101,3.8162,3.8251,3.8318,3.84,3.8432,3.8493,3.8528,3.8609,3.8595,3.8706,3.8671,3.8712,3.8746,3.875,3.876,3.8743,3.8774,3.884,3.8848,3.8768,3.8767,3.8766,0,3.7779,3.7918,3.8011,3.8053,3.8169,3.821,3.8259,3.834,3.8391,3.8468,3.8501,3.8585,3.8631,3.8694,3.8749,3.8735,3.8853,3.8845,3.888,3.8878,3.8903,3.89,3.8974,3.8932,3.8932,3.8932,3.8931,0,3.7851,3.7925,3.8018,3.8075,3.8158,3.822,3.83,3.8352,3.8422,3.8487,3.8528,3.8588,3.8658,3.8725,3.8769,3.8852,3.8873,3.8899,3.8909,3.8895,3.8891,3.8922,3.8918,3.8934,3.8933,3.8933,3.8933,0,3.7881,3.7946,3.8049,3.815,3.8177,3.8233,3.8318,3.8373,3.8423,3.8505,3.8527,3.8606,3.8687,3.8748,3.8854,3.8883,3.897,3.8982,3.8943,3.8948,3.8978,3.8974,3.9074,3.9088,3.9037,3.9038,3.9038,0,3.7922,3.798,3.8086,3.8133,3.8183,3.8259,3.8311,3.8373,3.8426,3.8521,3.8563,3.8648,3.8719,3.8845,3.891,3.899,3.9003,3.9032,3.9015,3.8997,3.9,3.8995,3.9,3.9034,3.9034,3.9034,3.9034,0,3.7986,3.8015,3.809,3.8176,3.8238,3.8308,3.8379,3.8415,3.8489,3.8545,3.8629,3.8684,3.8791,3.8873,3.8958,3.9006,3.9031,3.9039,3.9051,3.9036,3.901,3.9022,3.8947,3.9037,3.9036,3.9036,3.9036,3.9036,3.8021,3.8074,3.8156,3.8238,3.8297,3.8362,3.8417,3.8474,3.8546,3.8639,3.8671,3.8756,3.8832,3.895,3.8998,3.9064,3.9064,3.9082,3.9086,3.9089,3.9087,3.9,3.908,3.908,3.908,3.908,3.908,0,3.8086,3.814,3.8215,3.8312,3.8375,3.8395,3.8474,3.8524,3.86,3.867,3.8738,3.8832,3.8911,3.8981,3.9062,3.9101,3.9114,3.912,3.9117,3.9127,3.9083,3.9064,3.9107,3.9107,3.9107,3.9107,3.9107,3.9107,3.8126,3.8215,3.8253,3.837,3.8424,3.851,3.8552,3.861,3.8666,3.877,3.8836,3.8882,3.8951,3.9036,3.9108,3.9126,3.9153,3.9155,3.9176,3.9134,3.913,3.9127,3.9109,3.9161,3.9161,3.9214,3.9214,3.9215]}]]